AAL8726 KDFW-KORD

Flight info

Callsign AAL8726
Flight time 2h 0m
Altitude 37000
Route AKUNA9 MLC DCT SGF DCT WELTS TRTLL6
Aircraft B738/M-SDE2E3FGHIRWXY/LB1

Departure

Time 2026-05-04 22:20
Airport Dallas Fort Worth International Airport (KDFW)

Arrival

Time 2026-05-05 00:20
Airport Chicago O'Hare International Airport (KORD)
Time Latitude Longitude Altitude Speed Heading
2026-05-04 21:47 32.89464 -97.03745 597 ft 0 kts 357°
2026-05-04 22:05 32.89460 -97.03744 597 ft 3 kts 358°
2026-05-04 22:05 32.89435 -97.03748 589 ft 4 kts 31°
2026-05-04 22:05 32.89421 -97.03768 597 ft 3 kts 88°
2026-05-04 22:06 32.89421 -97.03772 597 ft 1 kts 90°
2026-05-04 22:10 32.89421 -97.03769 597 ft 0 kts 91°
2026-05-04 22:11 32.89421 -97.03723 597 ft 10 kts 91°
2026-05-04 22:11 32.89419 -97.03620 597 ft 14 kts 90°
2026-05-04 22:11 32.89419 -97.03508 597 ft 13 kts 90°
2026-05-04 22:11 32.89418 -97.03400 597 ft 13 kts 90°
2026-05-04 22:12 32.89409 -97.03297 597 ft 13 kts 110°
2026-05-04 22:12 32.89411 -97.03202 597 ft 12 kts 39°
2026-05-04 22:12 32.89493 -97.03196 597 ft 12 kts 360°
2026-05-04 22:12 32.89591 -97.03195 597 ft 16 kts
2026-05-04 22:13 32.89725 -97.03195 597 ft 22 kts 360°
2026-05-04 22:13 32.89897 -97.03194 597 ft 27 kts
2026-05-04 22:13 32.90104 -97.03192 597 ft 32 kts
2026-05-04 22:13 32.90332 -97.03190 597 ft 34 kts 360°
2026-05-04 22:14 32.90559 -97.03190 597 ft 31 kts 360°
2026-05-04 22:14 32.90766 -97.03189 597 ft 29 kts
2026-05-04 22:14 32.90963 -97.03188 597 ft 28 kts
2026-05-04 22:14 32.91151 -97.03187 597 ft 26 kts
2026-05-04 22:15 32.91322 -97.03186 597 ft 24 kts
2026-05-04 22:15 32.91460 -97.03185 597 ft 18 kts
2026-05-04 22:15 32.91551 -97.03172 597 ft 9 kts 43°
2026-05-04 22:15 32.91559 -97.03123 597 ft 0 kts 89°
2026-05-04 22:18 32.91559 -97.03102 597 ft 7 kts 90°
2026-05-04 22:18 32.91557 -97.03014 597 ft 9 kts 98°
2026-05-04 22:18 32.91522 -97.02990 597 ft 6 kts 178°
2026-05-04 22:19 32.91474 -97.02990 597 ft 12 kts 180°
2026-05-04 22:19 32.91180 -97.02991 597 ft 75 kts 180°
2026-05-04 22:19 32.90461 -97.02996 598 ft 129 kts 180°
2026-05-04 22:19 32.89453 -97.03008 892 ft 147 kts 179°
2026-05-04 22:20 32.88481 -97.02990 1709 ft 141 kts 182°
2026-05-04 22:20 32.87440 -97.02981 2111 ft 151 kts 180°
2026-05-04 22:20 32.86404 -97.02943 2753 ft 158 kts 180°
2026-05-04 22:20 32.85212 -97.02869 3049 ft 181 kts 171°
2026-05-04 22:21 32.83959 -97.02344 3271 ft 204 kts 160°
2026-05-04 22:21 32.82566 -97.01650 3451 ft 229 kts 162°
2026-05-04 22:21 32.81048 -97.00897 3933 ft 242 kts 162°
2026-05-04 22:21 32.79579 -96.99804 4587 ft 259 kts 143°
2026-05-04 22:22 32.78254 -96.98304 5217 ft 265 kts 144°
2026-05-04 22:22 32.77049 -96.96574 5813 ft 284 kts 119°
2026-05-04 22:22 32.76383 -96.94333 6480 ft 292 kts 105°
2026-05-04 22:22 32.76368 -96.91905 7151 ft 298 kts 84°
2026-05-04 22:23 32.76508 -96.90262 7577 ft 302 kts 85°
2026-05-04 22:23 32.76743 -96.86958 8561 ft 305 kts 80°
2026-05-04 22:23 32.77174 -96.85336 9062 ft 305 kts 60°
2026-05-04 22:23 32.79048 -96.82933 9973 ft 301 kts 25°
2026-05-04 22:24 32.80958 -96.82050 10730 ft 292 kts
2026-05-04 22:24 32.82260 -96.81720 11266 ft 291 kts
2026-05-04 22:24 32.84279 -96.81252 12069 ft 292 kts
2026-05-04 22:24 32.86279 -96.80836 12891 ft 290 kts 358°
2026-05-04 22:25 32.88283 -96.80772 13732 ft 287 kts 352°
2026-05-04 22:25 32.90295 -96.80829 14343 ft 297 kts 352°
2026-05-04 22:25 32.92419 -96.80889 14509 ft 322 kts 353°
2026-05-04 22:25 32.94744 -96.80917 14721 ft 344 kts 354°
2026-05-04 22:26 32.97173 -96.80921 15242 ft 353 kts 354°
2026-05-04 22:26 32.99640 -96.80915 15968 ft 356 kts 353°
2026-05-04 22:26 33.02121 -96.80961 16735 ft 357 kts 352°
2026-05-04 22:26 33.04611 -96.81041 17470 ft 359 kts 352°
2026-05-04 22:27 33.07122 -96.81131 18161 ft 362 kts 351°
2026-05-04 22:27 33.09651 -96.81221 18758 ft 366 kts 351°
2026-05-04 22:27 33.12207 -96.81307 19370 ft 369 kts 351°
2026-05-04 22:27 33.14779 -96.81390 19995 ft 371 kts 351°
2026-05-04 22:28 33.17374 -96.81471 20606 ft 374 kts 351°
2026-05-04 22:28 33.19993 -96.81552 21222 ft 377 kts 351°
2026-05-04 22:28 33.22625 -96.81633 21798 ft 380 kts 351°
2026-05-04 22:28 33.25280 -96.81714 22344 ft 383 kts 351°
2026-05-04 22:29 33.27958 -96.81795 22908 ft 386 kts 351°
2026-05-04 22:29 33.30653 -96.81877 23441 ft 389 kts 351°
2026-05-04 22:29 33.33368 -96.81959 23912 ft 391 kts 351°
2026-05-04 22:29 33.36092 -96.82041 24420 ft 392 kts 350°
2026-05-04 22:30 33.38824 -96.82123 24913 ft 393 kts 350°
2026-05-04 22:30 33.41559 -96.82207 25381 ft 394 kts 349°
2026-05-04 22:30 33.44328 -96.82138 25819 ft 407 kts 359°
2026-05-04 22:30 33.47108 -96.81149 26234 ft 431 kts 15°
2026-05-04 22:31 33.49788 -96.79498 26699 ft 436 kts 18°
2026-05-04 22:31 33.52467 -96.77750 27137 ft 439 kts 18°
2026-05-04 22:31 33.55121 -96.75993 27536 ft 442 kts 18°
2026-05-04 22:31 33.57821 -96.74212 27924 ft 444 kts 17°
2026-05-04 22:32 33.60541 -96.72433 28297 ft 446 kts 17°
2026-05-04 22:32 33.63279 -96.70657 28676 ft 448 kts 17°
2026-05-04 22:32 33.66029 -96.68882 29050 ft 450 kts 16°
2026-05-04 22:32 33.68794 -96.67102 29413 ft 452 kts 16°
2026-05-04 22:33 33.71578 -96.65311 29762 ft 455 kts 16°
2026-05-04 22:33 33.74379 -96.63508 30071 ft 457 kts 15°
2026-05-04 22:33 33.77185 -96.61700 30347 ft 458 kts 15°
2026-05-04 22:33 33.79998 -96.59884 30684 ft 460 kts 15°
2026-05-04 22:34 33.82818 -96.58061 30981 ft 461 kts 15°
2026-05-04 22:34 33.85640 -96.56237 31328 ft 461 kts 15°
2026-05-04 22:34 33.88465 -96.54406 31744 ft 459 kts 15°
2026-05-04 22:34 33.91263 -96.52590 32199 ft 456 kts 14°
2026-05-04 22:35 33.94055 -96.50779 32625 ft 454 kts 14°
2026-05-04 22:35 33.96828 -96.48982 32994 ft 453 kts 14°
2026-05-04 22:35 33.99605 -96.47183 33358 ft 452 kts 14°
2026-05-04 22:35 34.02364 -96.45392 33813 ft 449 kts 14°
2026-05-04 22:36 34.05101 -96.43610 34293 ft 445 kts 13°
2026-05-04 22:36 34.07783 -96.41825 34614 ft 448 kts 16°
2026-05-04 22:36 34.10440 -96.39806 34818 ft 455 kts 19°
2026-05-04 22:36 34.13068 -96.37649 35042 ft 459 kts 20°
2026-05-04 22:37 34.15687 -96.35435 35345 ft 458 kts 20°
2026-05-04 22:37 34.18285 -96.33233 35669 ft 456 kts 20°
2026-05-04 22:37 34.20888 -96.31046 35956 ft 454 kts 20°
2026-05-04 22:37 34.23496 -96.28880 36190 ft 454 kts 19°
2026-05-04 22:38 34.26104 -96.26733 36434 ft 454 kts 19°
2026-05-04 22:38 34.28715 -96.24592 36690 ft 453 kts 19°
2026-05-04 22:38 34.31324 -96.22457 36786 ft 456 kts 19°
2026-05-04 22:39 34.36601 -96.18142 36787 ft 457 kts 19°
2026-05-04 22:39 34.41813 -96.13847 36774 ft 449 kts 19°
2026-05-04 22:40 34.46982 -96.09594 36793 ft 449 kts 19°
2026-05-04 22:40 34.52154 -96.05340 36793 ft 449 kts 19°
2026-05-04 22:41 34.57325 -96.01074 36782 ft 450 kts 19°
2026-05-04 22:41 34.62510 -95.96789 36789 ft 451 kts 18°
2026-05-04 22:42 34.67687 -95.92501 36792 ft 450 kts 18°
2026-05-04 22:42 34.72861 -95.88210 36793 ft 450 kts 18°
2026-05-04 22:43 34.78026 -95.83920 36798 ft 450 kts 19°
2026-05-04 22:43 34.83155 -95.79655 36788 ft 449 kts 19°
2026-05-04 22:44 34.88275 -95.75208 36797 ft 456 kts 21°
2026-05-04 22:44 34.93294 -95.70456 36814 ft 457 kts 22°
2026-05-04 22:45 34.98297 -95.65667 36792 ft 457 kts 22°
2026-05-04 22:45 35.03358 -95.60883 36124 ft 460 kts 22°
2026-05-04 22:45 35.05879 -95.58496 36239 ft 457 kts 22°
2026-05-04 22:46 35.08392 -95.56119 36433 ft 458 kts 22°
2026-05-04 22:46 35.10907 -95.53739 36745 ft 456 kts 21°
2026-05-04 22:46 35.15955 -95.48971 36781 ft 459 kts 21°
2026-05-04 22:47 35.20967 -95.44212 36759 ft 451 kts 21°
2026-05-04 22:47 35.25914 -95.39515 36776 ft 450 kts 21°
2026-05-04 22:48 35.30860 -95.34825 36771 ft 450 kts 21°
2026-05-04 22:48 35.35815 -95.30117 36775 ft 451 kts 21°
2026-05-04 22:49 35.40735 -95.25431 36792 ft 451 kts 21°
2026-05-04 22:49 35.45697 -95.20695 36786 ft 452 kts 22°
2026-05-04 22:50 35.50661 -95.15949 36784 ft 452 kts 22°
2026-05-04 22:50 35.55632 -95.11187 36784 ft 452 kts 22°
2026-05-04 22:51 35.60591 -95.06431 36783 ft 453 kts 22°
2026-05-04 22:51 35.65560 -95.01657 36810 ft 453 kts 22°
2026-05-04 22:52 35.70537 -94.96870 36791 ft 455 kts 22°
2026-05-04 22:52 35.75528 -94.92062 36781 ft 457 kts 22°
2026-05-04 22:53 35.80533 -94.87229 36792 ft 458 kts 22°
2026-05-04 22:53 35.85547 -94.82379 36784 ft 458 kts 22°
2026-05-04 22:54 35.90532 -94.77558 36774 ft 458 kts 22°
2026-05-04 22:54 35.95545 -94.72699 36774 ft 458 kts 22°
2026-05-04 22:55 36.00561 -94.67823 36787 ft 458 kts 22°
2026-05-04 22:55 36.05567 -94.62939 36795 ft 458 kts 22°
2026-05-04 22:56 36.10563 -94.58062 36802 ft 457 kts 22°
2026-05-04 22:56 36.15556 -94.53185 36814 ft 457 kts 22°
2026-05-04 22:57 36.20540 -94.48309 36804 ft 457 kts 21°
2026-05-04 22:57 36.25518 -94.43430 36803 ft 456 kts 21°
2026-05-04 22:58 36.30487 -94.38553 36820 ft 455 kts 21°
2026-05-04 22:58 36.35457 -94.33666 36798 ft 455 kts 21°
2026-05-04 22:59 36.40405 -94.28792 36827 ft 454 kts 21°
2026-05-04 22:59 36.45357 -94.23908 36825 ft 455 kts 21°
2026-05-04 23:00 36.50307 -94.19018 36833 ft 454 kts 20°
2026-05-04 23:00 36.55222 -94.14153 36813 ft 454 kts 20°
2026-05-04 23:01 36.60163 -94.09252 36773 ft 454 kts 21°
2026-05-04 23:01 36.65093 -94.04355 36768 ft 453 kts 21°
2026-05-04 23:02 36.70015 -93.99458 36784 ft 453 kts 21°
2026-05-04 23:02 36.74943 -93.94548 36779 ft 453 kts 21°
2026-05-04 23:03 36.79866 -93.89634 36772 ft 453 kts 21°
2026-05-04 23:03 36.84785 -93.84716 36777 ft 453 kts 21°
2026-05-04 23:04 36.89699 -93.79795 36784 ft 453 kts 21°
2026-05-04 23:04 36.94620 -93.74859 36774 ft 454 kts 22°
2026-05-04 23:05 36.99518 -93.69936 36754 ft 454 kts 22°
2026-05-04 23:05 37.04448 -93.64971 36753 ft 455 kts 22°
2026-05-04 23:06 37.09390 -93.59987 36753 ft 456 kts 22°
2026-05-04 23:06 37.14327 -93.54999 36753 ft 456 kts 22°
2026-05-04 23:07 37.19267 -93.49999 36811 ft 457 kts 23°
2026-05-04 23:07 37.24235 -93.44963 36782 ft 459 kts 24°
2026-05-04 23:08 37.29202 -93.39916 36728 ft 460 kts 24°
2026-05-04 23:08 37.34179 -93.34852 36733 ft 460 kts 24°
2026-05-04 23:09 37.39200 -93.29910 36732 ft 455 kts 21°
2026-05-04 23:09 37.44317 -93.25259 36749 ft 454 kts 21°
2026-05-04 23:10 37.49414 -93.20646 36734 ft 455 kts 21°
2026-05-04 23:10 37.54538 -93.15947 36719 ft 456 kts 21°
2026-05-04 23:11 37.59661 -93.11208 36717 ft 456 kts 21°
2026-05-04 23:11 37.63914 -93.07260 36716 ft 456 kts 21°
2026-05-04 23:12 37.69018 -93.02516 36748 ft 456 kts 22°
2026-05-04 23:12 37.74137 -92.97753 36725 ft 456 kts 22°
2026-05-04 23:13 37.79251 -92.92985 36713 ft 456 kts 23°
2026-05-04 23:13 37.84363 -92.88212 36714 ft 456 kts 23°
2026-05-04 23:14 37.89463 -92.83441 36715 ft 456 kts 23°
2026-05-04 23:14 37.94568 -92.78657 36739 ft 457 kts 23°
2026-05-04 23:15 37.99642 -92.73895 36756 ft 457 kts 23°
2026-05-04 23:15 38.04746 -92.69094 36755 ft 456 kts 23°
2026-05-04 23:16 38.09843 -92.64291 36721 ft 455 kts 23°
2026-05-04 23:16 38.14925 -92.59495 36702 ft 455 kts 24°
2026-05-04 23:17 38.19997 -92.54700 36699 ft 455 kts 24°
2026-05-04 23:17 38.25067 -92.49898 36701 ft 454 kts 24°
2026-05-04 23:18 38.30127 -92.45097 36694 ft 454 kts 24°
2026-05-04 23:18 38.35183 -92.40291 36685 ft 453 kts 24°
2026-05-04 23:19 38.40233 -92.35482 36683 ft 453 kts 24°
2026-05-04 23:19 38.45276 -92.30672 36695 ft 452 kts 24°
2026-05-04 23:20 38.50286 -92.25886 36698 ft 452 kts 24°
2026-05-04 23:20 38.55322 -92.21064 36689 ft 452 kts 24°
2026-05-04 23:21 38.60359 -92.16234 36691 ft 452 kts 24°
2026-05-04 23:21 38.65386 -92.11404 36713 ft 453 kts 25°
2026-05-04 23:22 38.70432 -92.06548 36702 ft 454 kts 25°
2026-05-04 23:22 38.75475 -92.01686 36697 ft 454 kts 25°
2026-05-04 23:23 38.80527 -91.96804 36700 ft 454 kts 25°
2026-05-04 23:23 38.85576 -91.91917 36696 ft 455 kts 25°
2026-05-04 23:24 38.90636 -91.87012 36688 ft 456 kts 27°
2026-05-04 23:24 38.95698 -91.82093 36700 ft 457 kts 27°
2026-05-04 23:25 39.00728 -91.77150 36687 ft 462 kts 31°
2026-05-04 23:25 39.03003 -91.74134 36724 ft 474 kts 40°
2026-05-04 23:25 39.05107 -91.70869 36685 ft 477 kts 42°
2026-05-04 23:26 39.09264 -91.64093 36687 ft 478 kts 42°
2026-05-04 23:26 39.13390 -91.57463 36692 ft 478 kts 42°
2026-05-04 23:27 39.17602 -91.50844 36684 ft 477 kts 43°
2026-05-04 23:27 39.21821 -91.44252 36667 ft 476 kts 43°
2026-05-04 23:28 39.26020 -91.37673 36661 ft 475 kts 43°
2026-05-04 23:28 39.30205 -91.31094 36656 ft 473 kts 43°
2026-05-04 23:29 39.34382 -91.24513 36652 ft 472 kts 43°
2026-05-04 23:29 39.38540 -91.17948 36735 ft 472 kts 43°
2026-05-04 23:30 39.42694 -91.11376 36800 ft 471 kts 44°
2026-05-04 23:30 39.46831 -91.04816 36840 ft 470 kts 44°
2026-05-04 23:31 39.50923 -90.98314 36883 ft 469 kts 44°
2026-05-04 23:31 39.55039 -90.91764 36674 ft 468 kts 44°
2026-05-04 23:32 39.59146 -90.85213 36699 ft 468 kts 44°
2026-05-04 23:32 39.63256 -90.78640 36685 ft 469 kts 45°
2026-05-04 23:33 39.67356 -90.72068 36679 ft 468 kts 46°
2026-05-04 23:33 39.71454 -90.65485 36665 ft 468 kts 46°
2026-05-04 23:34 39.75545 -90.58901 36672 ft 468 kts 46°
2026-05-04 23:34 39.79606 -90.52351 36670 ft 468 kts 46°
2026-05-04 23:35 39.83686 -90.45756 36677 ft 469 kts 46°
2026-05-04 23:35 39.87770 -90.39140 36674 ft 469 kts 46°
2026-05-04 23:36 39.91845 -90.32526 36671 ft 468 kts 47°
2026-05-04 23:36 39.95930 -90.25910 36665 ft 467 kts 45°
2026-05-04 23:37 40.00633 -90.20221 36666 ft 460 kts 34°
2026-05-04 23:37 40.05578 -90.14937 36666 ft 460 kts 35°
2026-05-04 23:38 40.10485 -90.09564 36540 ft 463 kts 36°
2026-05-04 23:38 40.12948 -90.06810 36017 ft 465 kts 36°
2026-05-04 23:38 40.15389 -90.04058 35460 ft 463 kts 36°
2026-05-04 23:39 40.17827 -90.01299 34860 ft 463 kts 36°
2026-05-04 23:39 40.20260 -89.98543 34370 ft 460 kts 37°
2026-05-04 23:39 40.22667 -89.95815 33938 ft 457 kts 37°
2026-05-04 23:39 40.25029 -89.93139 33510 ft 453 kts 37°
2026-05-04 23:40 40.27404 -89.90447 33039 ft 450 kts 37°
2026-05-04 23:40 40.29763 -89.87773 32526 ft 447 kts 37°
2026-05-04 23:40 40.32109 -89.85111 32037 ft 444 kts 37°
2026-05-04 23:40 40.34425 -89.82480 31586 ft 441 kts 37°
2026-05-04 23:41 40.36744 -89.79842 31135 ft 438 kts 38°
2026-05-04 23:41 40.39037 -89.77231 30681 ft 436 kts 38°
2026-05-04 23:41 40.41324 -89.74626 30240 ft 433 kts 38°
2026-05-04 23:41 40.43586 -89.72046 29814 ft 431 kts 38°
2026-05-04 23:42 40.45839 -89.69473 29348 ft 428 kts 38°
2026-05-04 23:42 40.48078 -89.66915 28874 ft 425 kts 37°
2026-05-04 23:42 40.50302 -89.64371 28336 ft 423 kts 37°
2026-05-04 23:42 40.52515 -89.61838 27847 ft 420 kts 37°
2026-05-04 23:43 40.54718 -89.59314 27300 ft 420 kts 37°
2026-05-04 23:43 40.56909 -89.56801 26841 ft 417 kts 37°
2026-05-04 23:43 40.59087 -89.54300 26414 ft 414 kts 37°
2026-05-04 23:43 40.61251 -89.51813 26000 ft 410 kts 37°
2026-05-04 23:44 40.63365 -89.49382 25595 ft 407 kts 37°
2026-05-04 23:44 40.65489 -89.46937 25198 ft 404 kts 37°
2026-05-04 23:44 40.67595 -89.44511 24802 ft 401 kts 37°
2026-05-04 23:44 40.69689 -89.42097 24405 ft 399 kts 37°
2026-05-04 23:45 40.71782 -89.39683 24017 ft 401 kts 37°
2026-05-04 23:45 40.73903 -89.37237 23683 ft 408 kts 37°
2026-05-04 23:45 40.76023 -89.34746 23647 ft 408 kts 38°
2026-05-04 23:45 40.78137 -89.32233 23478 ft 414 kts 38°
2026-05-04 23:46 40.80277 -89.29675 23006 ft 414 kts 38°
2026-05-04 23:46 40.82399 -89.27134 22521 ft 410 kts 38°
2026-05-04 23:46 40.84504 -89.24611 22033 ft 407 kts 38°
2026-05-04 23:46 40.86597 -89.22103 21570 ft 403 kts 38°
2026-05-04 23:47 40.88670 -89.19621 21105 ft 400 kts 38°
2026-05-04 23:47 40.90729 -89.17156 20663 ft 397 kts 38°
2026-05-04 23:47 40.92765 -89.14718 20209 ft 394 kts 38°
2026-05-04 23:47 40.94771 -89.12314 19771 ft 392 kts 38°
2026-05-04 23:48 40.96784 -89.09899 19338 ft 390 kts 38°
2026-05-04 23:48 40.98783 -89.07500 18912 ft 387 kts 38°
2026-05-04 23:48 41.00774 -89.05108 18484 ft 385 kts 38°
2026-05-04 23:48 41.02752 -89.02729 18066 ft 383 kts 37°
2026-05-04 23:49 41.04722 -89.00357 17607 ft 381 kts 38°
2026-05-04 23:49 41.06676 -88.98004 17132 ft 379 kts 37°
2026-05-04 23:49 41.08620 -88.95659 16652 ft 374 kts 37°
2026-05-04 23:49 41.10517 -88.93367 16174 ft 364 kts 37°
2026-05-04 23:50 41.12365 -88.91132 15718 ft 355 kts 37°
2026-05-04 23:50 41.14169 -88.88951 15278 ft 347 kts 37°
2026-05-04 23:50 41.15933 -88.86819 14831 ft 339 kts 37°
2026-05-04 23:50 41.17663 -88.84727 14473 ft 335 kts 37°
2026-05-04 23:51 41.19382 -88.82648 14123 ft 334 kts 37°
2026-05-04 23:51 41.21076 -88.80596 13777 ft 333 kts 37°
2026-05-04 23:51 41.22784 -88.78526 13426 ft 332 kts 37°
2026-05-04 23:51 41.24489 -88.76458 13033 ft 331 kts 37°
2026-05-04 23:52 41.26186 -88.74397 12631 ft 330 kts 37°
2026-05-04 23:52 41.27877 -88.72343 12250 ft 329 kts 37°
2026-05-04 23:52 41.29562 -88.70294 11868 ft 328 kts 37°
2026-05-04 23:52 41.31244 -88.68247 11482 ft 324 kts 37°
2026-05-04 23:53 41.32891 -88.66239 11121 ft 317 kts 37°
2026-05-04 23:53 41.34508 -88.64269 11065 ft 315 kts 37°
2026-05-04 23:53 41.36102 -88.62327 11043 ft 314 kts 37°
2026-05-04 23:53 41.37710 -88.60372 11028 ft 304 kts 37°
2026-05-04 23:54 41.39240 -88.58545 11008 ft 295 kts 36°
2026-05-04 23:54 41.40788 -88.56717 10853 ft 310 kts 36°
2026-05-04 23:54 41.42470 -88.54744 10488 ft 327 kts 36°
2026-05-04 23:54 41.44169 -88.52733 10121 ft 326 kts 37°
2026-05-04 23:55 41.45856 -88.50726 9753 ft 324 kts 37°
2026-05-04 23:55 41.47520 -88.48742 9390 ft 319 kts 37°
2026-05-04 23:55 41.50788 -88.44845 9052 ft 312 kts 37°
2026-05-04 23:56 41.52371 -88.42954 9026 ft 298 kts 37°
2026-05-04 23:56 41.53879 -88.41150 9017 ft 285 kts 36°
2026-05-04 23:56 41.55337 -88.39409 9041 ft 278 kts 36°
2026-05-04 23:56 41.56788 -88.37681 9053 ft 280 kts 36°
2026-05-04 23:57 41.58246 -88.35943 9049 ft 282 kts 36°
2026-05-04 23:57 41.59709 -88.34196 9047 ft 283 kts 36°
2026-05-04 23:57 41.61172 -88.32445 9054 ft 283 kts 36°
2026-05-04 23:57 41.62644 -88.30688 9043 ft 283 kts 36°
2026-05-04 23:58 41.64117 -88.28937 9036 ft 283 kts 36°
2026-05-04 23:58 41.65568 -88.27213 9041 ft 282 kts 36°
2026-05-04 23:58 41.67035 -88.25469 9034 ft 282 kts 36°
2026-05-04 23:58 41.68495 -88.23729 9026 ft 281 kts 36°
2026-05-04 23:59 41.69957 -88.21989 9034 ft 281 kts 36°
2026-05-04 23:59 41.71414 -88.20253 9021 ft 283 kts 36°
2026-05-04 23:59 41.72912 -88.18469 9030 ft 291 kts 36°
2026-05-04 23:59 41.74434 -88.16652 9022 ft 293 kts 36°
2026-05-05 00:00 41.75952 -88.14839 9006 ft 290 kts 36°
2026-05-05 00:00 41.76440 -88.14257 9015 ft 290 kts 36°
2026-05-05 00:00 41.78953 -88.11247 9036 ft 288 kts 36°
2026-05-05 00:00 41.80447 -88.09458 9037 ft 288 kts 36°
2026-05-05 00:01 41.81894 -88.07621 8938 ft 294 kts 39°
2026-05-05 00:01 41.82875 -88.06310 8853 ft 296 kts 39°
2026-05-05 00:01 41.84791 -88.03734 8671 ft 293 kts 39°
2026-05-05 00:01 41.86235 -88.01806 8546 ft 292 kts 39°
2026-05-05 00:02 41.87643 -87.99835 8407 ft 297 kts 49°
2026-05-05 00:02 41.88447 -87.97240 8267 ft 309 kts 80°
2026-05-05 00:02 41.88534 -87.95290 8213 ft 310 kts 88°
2026-05-05 00:02 41.88514 -87.92436 8095 ft 311 kts 90°
2026-05-05 00:03 41.88475 -87.89537 8015 ft 309 kts 90°
2026-05-05 00:03 41.88451 -87.86667 7998 ft 306 kts 90°
2026-05-05 00:03 41.88440 -87.83821 7979 ft 303 kts 89°
2026-05-05 00:03 41.88434 -87.81010 8023 ft 302 kts 89°
2026-05-05 00:04 41.88430 -87.78180 8039 ft 305 kts 89°
2026-05-05 00:04 41.88428 -87.75312 8043 ft 308 kts 89°
2026-05-05 00:04 41.88425 -87.72439 8044 ft 310 kts 89°
2026-05-05 00:04 41.88421 -87.69545 8035 ft 308 kts 90°
2026-05-05 00:05 41.88416 -87.66694 8021 ft 303 kts 90°
2026-05-05 00:05 41.88410 -87.63905 8025 ft 300 kts 90°
2026-05-05 00:05 41.88404 -87.61089 8034 ft 303 kts 90°
2026-05-05 00:05 41.88398 -87.58259 8036 ft 304 kts 90°
2026-05-05 00:06 41.88391 -87.55447 8021 ft 299 kts 90°
2026-05-05 00:06 41.88383 -87.52688 8014 ft 293 kts 90°
2026-05-05 00:06 41.88374 -87.50005 8011 ft 290 kts 90°
2026-05-05 00:06 41.88439 -87.47316 8016 ft 289 kts 81°
2026-05-05 00:07 41.88801 -87.44655 8029 ft 290 kts 76°
2026-05-05 00:07 41.89226 -87.42006 8024 ft 291 kts 76°
2026-05-05 00:07 41.89627 -87.39381 8021 ft 288 kts 77°
2026-05-05 00:07 41.90003 -87.36779 8009 ft 279 kts 78°
2026-05-05 00:08 41.90354 -87.34276 8003 ft 268 kts 78°
2026-05-05 00:08 41.90694 -87.31839 8036 ft 262 kts 78°
2026-05-05 00:08 41.91207 -87.29528 8009 ft 258 kts 56°
2026-05-05 00:08 41.92442 -87.27887 8032 ft 249 kts 23°
2026-05-05 00:09 41.94068 -87.27259 8034 ft 242 kts 355°
2026-05-05 00:09 41.95695 -87.27584 8033 ft 232 kts 333°
2026-05-05 00:09 41.97061 -87.28610 8023 ft 222 kts 316°
2026-05-05 00:09 41.97901 -87.30223 8019 ft 208 kts 281°
2026-05-05 00:10 41.98103 -87.32140 8024 ft 207 kts 275°
2026-05-05 00:10 41.98283 -87.34061 8029 ft 207 kts 276°
2026-05-05 00:10 41.98417 -87.35986 8017 ft 207 kts 274°
2026-05-05 00:10 41.98482 -87.37927 7945 ft 209 kts 272°
2026-05-05 00:11 41.98506 -87.39899 7691 ft 212 kts 271°
2026-05-05 00:11 41.98511 -87.41862 7399 ft 211 kts 270°
2026-05-05 00:11 41.98508 -87.43821 7129 ft 207 kts 270°
2026-05-05 00:11 41.98501 -87.45736 6865 ft 203 kts 270°
2026-05-05 00:12 41.98493 -87.47624 6598 ft 202 kts 269°
2026-05-05 00:12 41.98484 -87.49523 6332 ft 203 kts 269°
2026-05-05 00:12 41.98476 -87.51422 6069 ft 203 kts 269°
2026-05-05 00:12 41.98469 -87.53312 5790 ft 201 kts 269°
2026-05-05 00:13 41.98462 -87.55184 5522 ft 199 kts 269°
2026-05-05 00:13 41.98455 -87.57036 5260 ft 197 kts 268°
2026-05-05 00:13 41.98449 -87.58877 4996 ft 195 kts 268°
2026-05-05 00:13 41.98443 -87.60675 4721 ft 190 kts 267°
2026-05-05 00:14 41.98438 -87.62434 4472 ft 184 kts 267°
2026-05-05 00:14 41.98434 -87.64110 4234 ft 174 kts 266°
2026-05-05 00:14 41.98430 -87.65690 4004 ft 163 kts 266°
2026-05-05 00:14 41.98427 -87.67110 3784 ft 146 kts 266°
2026-05-05 00:15 41.98424 -87.68395 3629 ft 132 kts 264°
2026-05-05 00:15 41.98420 -87.69591 3494 ft 129 kts 265°
2026-05-05 00:15 41.98416 -87.70797 3301 ft 128 kts 264°
2026-05-05 00:15 41.98412 -87.72002 3127 ft 128 kts 264°
2026-05-05 00:16 41.98410 -87.73222 2955 ft 132 kts 264°
2026-05-05 00:16 41.98407 -87.74457 2779 ft 131 kts 264°
2026-05-05 00:16 41.98405 -87.75678 2600 ft 130 kts 264°
2026-05-05 00:16 41.98411 -87.76892 2428 ft 131 kts 266°
2026-05-05 00:17 41.98490 -87.78119 2273 ft 134 kts 269°
2026-05-05 00:17 41.98661 -87.79360 2108 ft 133 kts 272°
2026-05-05 00:17 41.98782 -87.80568 1947 ft 131 kts 264°
2026-05-05 00:17 41.98809 -87.81779 1800 ft 129 kts 263°
2026-05-05 00:18 41.98821 -87.83008 1637 ft 136 kts 263°
2026-05-05 00:18 41.98830 -87.84320 1443 ft 141 kts 265°
2026-05-05 00:18 41.98834 -87.85622 1211 ft 139 kts 264°
2026-05-05 00:18 41.98835 -87.86927 1017 ft 141 kts 262°
2026-05-05 00:19 41.98826 -87.88250 830 ft 142 kts 265°
2026-05-05 00:19 41.98833 -87.89572 679 ft 140 kts 264°
2026-05-05 00:19 41.98832 -87.90746 669 ft 109 kts 270°
2026-05-05 00:19 41.98831 -87.91607 667 ft 74 kts 270°
2026-05-05 00:20 41.98830 -87.92130 669 ft 38 kts 269°
2026-05-05 00:20 41.98829 -87.92325 670 ft 11 kts 266°
2026-05-05 00:20 41.98782 -87.92400 670 ft 11 kts 197°
2026-05-05 00:20 41.98721 -87.92405 670 ft 0 kts 180°
2026-05-05 00:26 41.98714 -87.92405 670 ft 0 kts 180°
2026-05-05 00:26 41.98707 -87.92404 670 ft 0 kts 180°
2026-05-05 00:29 41.98694 -87.92404 670 ft 4 kts 181°
2026-05-05 00:30 41.98664 -87.92405 670 ft 4 kts 182°
2026-05-05 00:30 41.98645 -87.92405 670 ft 0 kts 182°